[[{"header":{"parameterUnit":"m.s-1","parameterCategory":1,"la1":30.2991,"la2":30.254,"lo1":-89.0895,"lo2":-89.0444,"dy":0.0017,"dx":0.0017,"nx":28,"ny":28,"refTime":"2025-03-17T09:00:00:Z","depth":0,"parameterNumber":2,"parameterNumberName":"U-component_of_WINDS"},"data":[0,0,0,0,0,0,0,0,0,0,0,0,0,0,0,0,0,0,0,0,0,0,0,0,0,0,0,0,0,0,0,0,0,0,0,0,0,0,0,0,0,0,0,0,0,0,0,0,0,0,0,0,0,0,0,0,0,0,4.0461,4.0463,0,4.0588,4.0589,4.0591,4.0559,4.0556,4.0554,4.0552,4.0682,4.0687,4.0693,0,0,0,0,0,0,0,0,0,0,0,0,0,4.0195,4.02,4.0461,4.0463,4.0464,4.0587,4.0589,4.0591,4.0559,4.0556,4.0553,4.055,4.068,4.0687,4.0694,0,0,0,0,0,0,0,0,0,0,0,0,0,4.0315,4.0202,4.0461,4.0463,4.0465,4.0587,4.0589,4.0591,4.056,4.0556,4.0552,4.0549,4.0678,4.0686,4.0695,4.0822,0,0,4.0721,4.0725,0,0,0,0,0,0,0,0,4.0308,4.0325,4.0462,4.0464,4.0465,4.0554,4.0543,4.0669,4.0561,4.0524,4.0551,4.0547,4.0642,4.0654,4.0685,4.0828,4.0834,4.0722,4.0727,4.0731,4.0733,0,0,0,0,0,0,0,4.03,4.0319,4.0511,4.0464,4.0466,4.0459,4.0472,4.0567,4.0602,4.0527,4.0525,4.054,4.0643,4.0677,4.0688,4.0836,4.0722,4.0729,4.0735,4.0738,4.1093,4.1097,0,0,0,0,0,0,4.029,4.0313,4.0507,4.0515,4.0376,4.0467,4.0481,4.0529,4.0601,4.0609,4.0543,4.0538,4.0664,4.0678,4.0693,4.0849,4.0731,4.0739,4.0744,4.1089,4.1094,4.1099,0,0,0,0,0,0,4.0284,4.0308,4.0502,4.0413,4.0438,4.0475,4.0529,4.0534,4.0568,4.0614,4.062,4.0572,4.0662,4.0681,4.0791,4.0853,4.0743,4.0751,4.1084,4.1091,4.1096,4.1161,0,0,0,0,0,0,4.0277,4.0306,4.0354,4.0415,4.0442,4.0598,4.0533,4.0539,4.0583,4.0578,4.0642,4.0649,4.066,4.0778,4.08,4.0863,4.0757,4.1079,4.1087,4.1094,4.1153,4.1169,4.1182,0,0,0,0,0,4.0268,4.0367,4.0357,4.038,4.0503,4.0601,4.0617,4.0628,4.0588,4.0637,4.0667,4.0647,4.0843,4.079,4.0814,4.088,4.1075,4.1085,4.1094,4.1147,4.1166,4.1181,0,0,0,0,0,0,4.0312,4.0375,4.0364,4.0486,4.0538,4.0596,4.0658,4.0647,4.0712,4.0704,4.0715,4.073,4.0843,4.0872,4.0812,4.1009,4.0953,4.0968,4.0985,4.1004,4.1017,4.1008,4.0765,0,0,0,0,0,4.0336,4.0409,4.046,4.0563,4.059,4.062,4.0663,4.0666,4.0721,4.0744,4.0781,4.0836,4.091,4.0958,4.1029,4.1158,4.1172,4.1216,4.123,4.1241,4.1254,4.1327,4.1347,4.113,4.113,4.113,0,0,4.0386,4.0429,4.0475,4.0573,4.0614,4.0692,4.0639,4.0722,4.0779,4.0756,4.0863,4.0893,4.0955,4.1076,4.1131,4.1104,4.1317,4.1253,4.1262,4.1269,4.1339,4.1359,4.1377,4.1136,4.1135,4.1134,0,0,4.0517,4.0557,4.0647,4.069,4.0754,4.0773,4.0795,4.0855,4.0874,4.0981,4.0966,4.1036,4.1162,4.1208,4.1247,4.1399,4.1384,4.1421,4.1495,4.1566,4.1583,4.1599,4.1654,4.1674,4.1434,4.1434,4.1434,0,4.0571,4.0686,4.0695,4.0781,4.0825,4.0809,4.0902,4.0943,4.1026,4.1058,4.1026,4.1187,4.1227,4.1359,4.1397,4.1429,4.1455,4.1414,4.158,4.1595,4.161,4.1663,4.1684,4.1438,4.1438,4.1437,4.1437,0,4.0751,4.0831,4.0897,4.0979,4.103,4.1119,4.1143,4.1195,4.1194,4.1218,4.1329,4.1377,4.1458,4.149,4.149,4.1623,4.1605,4.1577,4.1521,4.1635,4.1685,4.1705,4.1444,4.1443,4.1442,4.1441,0,0,4.0912,4.0999,4.1023,4.1061,4.1131,4.1194,4.1283,4.1362,4.1407,4.1465,4.1541,4.165,4.1626,4.1671,4.1676,4.1738,4.1858,4.1703,4.1705,4.1731,4.201,4.2031,4.2054,4.1848,4.1852,4.1855,4.2005,0,4.105,4.1206,4.1218,4.136,4.1435,4.1421,4.1499,4.1551,4.1576,4.1644,4.1672,4.1749,4.171,4.1738,4.1799,4.183,4.1914,4.1819,4.192,4.1924,4.1906,4.208,4.2102,4.2241,4.2024,4.2028,4.203,0,4.1232,4.1297,4.1445,4.1507,4.1539,4.1609,4.1684,4.1749,4.1808,4.1822,4.1874,4.1872,4.1965,4.1906,4.2035,4.1971,4.2013,4.2035,4.2041,4.2051,4.1984,4.2096,4.2285,4.2307,4.2061,4.2058,4.2056,0,4.1336,4.1461,4.1566,4.1599,4.1673,4.1723,4.1756,4.1812,4.186,4.1926,4.1957,4.2033,4.2075,4.2134,4.2153,4.2108,4.2283,4.2225,4.2298,4.2298,4.2336,4.2333,4.2536,4.2362,4.2362,4.2361,4.2361,0,4.1489,4.1581,4.1614,4.168,4.1783,4.1797,4.1899,4.193,4.198,4.2052,4.2045,4.2113,4.2134,4.2206,4.2221,4.2327,4.2346,4.2361,4.2364,4.2362,4.236,4.239,4.2381,4.2367,4.2365,4.2364,4.2363,0,4.1623,4.1649,4.1763,4.1825,4.1842,4.1916,4.1969,4.2033,4.2057,4.2148,4.2171,4.2209,4.2294,4.2319,4.242,4.2431,4.2556,4.255,4.2536,4.2536,4.2609,4.2602,4.2838,4.287,4.2674,4.2676,4.2678,0,4.1719,4.179,4.1859,4.1907,4.1942,4.2019,4.2068,4.2085,4.2137,4.2212,4.2267,4.2351,4.2418,4.2555,4.2592,4.2671,4.2667,4.2745,4.2679,4.2676,4.267,4.2666,4.2674,4.2757,4.2759,4.2761,4.2762,0,4.1888,4.1898,4.1968,4.2045,4.2104,4.2165,4.2223,4.2263,4.2289,4.2348,4.2434,4.2487,4.2592,4.2675,4.2756,4.2791,4.2782,4.2783,4.2804,4.2803,4.2792,4.2801,4.257,4.2777,4.2776,4.2774,4.2774,4.2773,4.2007,4.207,4.2129,4.2209,4.2255,4.231,4.2374,4.2407,4.2479,4.2565,4.2572,4.2666,4.2727,4.2833,4.2873,4.2948,4.2926,4.2956,4.2964,4.2972,4.2978,4.278,4.2963,4.2962,4.2962,4.2962,4.2961,0,4.2176,4.2214,4.2287,4.237,4.2434,4.2419,4.2484,4.2538,4.2621,4.2678,4.2746,4.2847,4.2929,4.2974,4.3056,4.3108,4.3106,4.3129,4.3125,4.3134,4.2993,4.2967,4.3129,4.3129,4.3129,4.3129,4.3129,4.3129,4.2272,4.2378,4.2395,4.2526,4.2563,4.2655,4.2694,4.2746,4.2792,4.2905,4.2973,4.3002,4.3055,4.3141,4.3216,4.3228,4.3259,4.3285,4.3294,4.3161,4.3144,4.3127,4.3103,4.3291,4.3291,4.3429,4.343,4.3431]},{"header":{"parameterUnit":"m.s-1","parameterCategory":1,"la1":30.2991,"la2":30.254,"lo1":-89.0895,"lo2":-89.0444,"dy":0.0017,"dx":0.0017,"nx":28,"ny":28,"refTime":"2025-03-17T09:00:00:Z","depth":0,"parameterNumber":3,"parameterNumberName":"V-component_of_WINDS"},"data":[0,0,0,0,0,0,0,0,0,0,0,0,0,0,0,0,0,0,0,0,0,0,0,0,0,0,0,0,0,0,0,0,0,0,0,0,0,0,0,0,0,0,0,0,0,0,0,0,0,0,0,0,0,0,0,0,0,0,-6.2776,-6.2779,0,-6.3026,-6.3029,-6.3032,-6.3008,-6.3004,-6.3,-6.2996,-6.3255,-6.3265,-6.3275,0,0,0,0,0,0,0,0,0,0,0,0,0,-6.228,-6.2289,-6.2776,-6.2779,-6.2782,-6.3026,-6.3029,-6.3033,-6.3008,-6.3004,-6.2999,-6.2994,-6.3251,-6.3264,-6.3276,0,0,0,0,0,0,0,0,0,0,0,0,0,-6.2509,-6.2292,-6.2775,-6.2799,-6.2804,-6.3025,-6.3029,-6.3033,-6.3009,-6.3003,-6.2998,-6.2992,-6.3247,-6.3262,-6.3278,-6.3492,0,0,-6.3326,-6.3333,0,0,0,0,0,0,0,0,-6.2496,-6.2528,-6.2793,-6.2798,-6.2804,-6.298,-6.2949,-6.3187,-6.3011,-6.2931,-6.2996,-6.2989,-6.3168,-6.319,-6.325,-6.3504,-6.3515,-6.3328,-6.3337,-6.3344,-6.3348,0,0,0,0,0,0,0,-6.2481,-6.2517,-6.2875,-6.2796,-6.2803,-6.2799,-6.2825,-6.2994,-6.3079,-6.2938,-6.2937,-6.2967,-6.317,-6.3235,-6.3256,-6.3519,-6.3327,-6.3341,-6.3351,-6.3357,-6.3964,-6.397,0,0,0,0,0,0,-6.2459,-6.2504,-6.2867,-6.2882,-6.2632,-6.2812,-6.2841,-6.2929,-6.3078,-6.3095,-6.2971,-6.2964,-6.3211,-6.3237,-6.3265,-6.3527,-6.3344,-6.3359,-6.3368,-6.3957,-6.3965,-6.3973,0,0,0,0,0,0,-6.2448,-6.2491,-6.2857,-6.2693,-6.2739,-6.2827,-6.2926,-6.2937,-6.3002,-6.3103,-6.3118,-6.3022,-6.3207,-6.3242,-6.3436,-6.3535,-6.3366,-6.338,-6.395,-6.396,-6.3969,-6.4052,0,0,0,0,0,0,-6.2434,-6.2488,-6.2569,-6.2695,-6.2748,-6.3023,-6.2932,-6.2946,-6.3029,-6.3022,-6.3154,-6.317,-6.3205,-6.3413,-6.3452,-6.3554,-6.3392,-6.3941,-6.3954,-6.3966,-6.4041,-6.4063,-6.4083,0,0,0,0,0,-6.2416,-6.2582,-6.2573,-6.2617,-6.2851,-6.3029,-6.306,-6.3096,-6.3037,-6.312,-6.3185,-6.3166,-6.3518,-6.3433,-6.3476,-6.3585,-6.3935,-6.395,-6.3965,-6.4031,-6.4059,-6.4082,0,0,0,0,0,0,-6.2466,-6.2599,-6.2591,-6.2802,-6.2905,-6.3025,-6.3131,-6.3124,-6.3246,-6.3234,-6.3275,-6.3305,-6.35,-6.3562,-6.3465,-6.3801,-6.3719,-6.3743,-6.3754,-6.3781,-6.3802,-6.3784,-6.3405,0,0,0,0,0,-6.2502,-6.2634,-6.2743,-6.292,-6.2971,-6.3042,-6.3121,-6.314,-6.3248,-6.3292,-6.3371,-6.3477,-6.3612,-6.37,-6.3829,-6.4049,-6.4078,-6.4145,-6.4166,-6.4183,-6.4204,-6.4328,-6.4359,-6.4022,-6.4022,-6.4022,0,0,-6.2577,-6.2666,-6.2747,-6.2932,-6.3013,-6.3151,-6.3079,-6.3227,-6.333,-6.3314,-6.3502,-6.3564,-6.3686,-6.3894,-6.399,-6.3951,-6.4304,-6.4202,-6.4215,-6.4227,-6.4346,-6.4378,-6.4407,-6.4032,-6.403,-6.4029,0,0,-6.2784,-6.2864,-6.3021,-6.3104,-6.3228,-6.3274,-6.3312,-6.3434,-6.3475,-6.3664,-6.3655,-6.3779,-6.4009,-6.4097,-6.4171,-6.4413,-6.4401,-6.4454,-6.4565,-6.4685,-6.4711,-6.4735,-6.4823,-6.4854,-6.4474,-6.4475,-6.4475,0,-6.2862,-6.3068,-6.3102,-6.3252,-6.3335,-6.3326,-6.3486,-6.3565,-6.3726,-6.3784,-6.3738,-6.4028,-6.4109,-6.4339,-6.4398,-6.4458,-6.4504,-6.444,-6.4704,-6.4729,-6.4751,-6.4836,-6.4869,-6.4481,-6.448,-6.4479,-6.4479,0,-6.3159,-6.3302,-6.3414,-6.3569,-6.3664,-6.3818,-6.3876,-6.3968,-6.3979,-6.4031,-6.4225,-6.4322,-6.4471,-6.4527,-6.4539,-6.476,-6.4732,-6.4695,-6.4613,-6.4789,-6.4869,-6.4902,-6.4489,-6.4487,-6.4485,-6.4484,0,0,-6.3406,-6.3578,-6.3618,-6.3689,-6.3826,-6.3938,-6.4093,-6.4239,-6.4318,-6.4429,-6.4561,-6.4757,-6.4724,-6.4809,-6.4831,-6.4935,-6.5123,-6.4886,-6.4889,-6.4928,-6.5375,-6.5403,-6.544,-6.5115,-6.5122,-6.5127,-6.5365,0,-6.3628,-6.3901,-6.3936,-6.4179,-6.4312,-6.4307,-6.4442,-6.4541,-6.4594,-6.4716,-6.4773,-6.4913,-6.4858,-6.4909,-6.5012,-6.5078,-6.5214,-6.5062,-6.524,-6.5246,-6.5212,-6.5482,-6.5512,-6.5732,-6.5397,-6.5402,-6.5406,0,-6.3924,-6.4044,-6.4299,-6.4419,-6.4477,-6.4597,-6.4735,-6.4851,-6.4964,-6.4995,-6.509,-6.51,-6.5261,-6.5171,-6.5396,-6.5291,-6.5366,-6.541,-6.542,-6.5439,-6.5338,-6.551,-6.5803,-6.5837,-6.5455,-6.5451,-6.5448,0,-6.4081,-6.4305,-6.4488,-6.4549,-6.4693,-6.4778,-6.4842,-6.4949,-6.5036,-6.5156,-6.5213,-6.535,-6.5426,-6.5533,-6.558,-6.551,-6.5803,-6.5716,-6.5834,-6.5834,-6.5898,-6.5893,-6.6209,-6.5943,-6.5942,-6.5942,-6.5941,0,-6.4327,-6.4484,-6.456,-6.4673,-6.485,-6.4889,-6.5063,-6.5124,-6.522,-6.5346,-6.5349,-6.5467,-6.552,-6.5647,-6.5684,-6.5866,-6.5899,-6.593,-6.5939,-6.5931,-6.5928,-6.5982,-6.5969,-6.595,-6.5948,-6.5947,-6.5945,0,-6.4532,-6.4589,-6.4788,-6.4909,-6.4942,-6.5068,-6.5171,-6.5281,-6.5332,-6.5491,-6.5531,-6.5612,-6.5761,-6.5818,-6.6,-6.6025,-6.6236,-6.6231,-6.6197,-6.62,-6.6316,-6.6305,-6.6679,-6.6731,-6.6429,-6.6432,-6.6434,0,-6.4686,-6.4807,-6.494,-6.5024,-6.5091,-6.5226,-6.5314,-6.5358,-6.545,-6.5589,-6.5683,-6.5831,-6.5953,-6.6192,-6.6268,-6.6408,-6.6408,-6.6529,-6.6429,-6.6418,-6.6412,-6.6405,-6.6419,-6.6548,-6.6551,-6.6554,-6.6556,0,-6.4954,-6.4977,-6.5103,-6.524,-6.5345,-6.5455,-6.5562,-6.5631,-6.5691,-6.5795,-6.5947,-6.6041,-6.6228,-6.6376,-6.652,-6.6587,-6.6584,-6.6586,-6.6622,-6.6616,-6.6593,-6.6609,-6.625,-6.6578,-6.6576,-6.6574,-6.6573,-6.6572,-6.514,-6.5248,-6.5359,-6.55,-6.5585,-6.5686,-6.5795,-6.586,-6.5988,-6.6143,-6.6161,-6.6326,-6.6438,-6.6631,-6.6704,-6.6834,-6.6802,-6.6853,-6.6866,-6.6878,-6.6888,-6.657,-6.6861,-6.686,-6.6859,-6.6859,-6.6859,0,-6.541,-6.5482,-6.5611,-6.5761,-6.5872,-6.5857,-6.5975,-6.607,-6.6214,-6.6318,-6.6438,-6.6614,-6.6759,-6.6846,-6.6991,-6.7079,-6.7081,-6.7116,-6.7111,-6.7127,-6.6907,-6.6863,-6.7112,-6.7112,-6.7112,-6.7112,-6.7112,-6.7112,-6.5564,-6.5747,-6.5783,-6.6008,-6.6078,-6.6239,-6.6308,-6.6401,-6.6485,-6.6682,-6.6801,-6.6857,-6.6956,-6.7108,-6.724,-6.7263,-6.7317,-6.7355,-6.7375,-6.7168,-6.7142,-6.7117,-6.7076,-6.7366,-6.7366,-6.7585,-6.7587,-6.7588]}]]